sat.trackr.live / text

‹ back to catalog

CUBESAT XI-IV (CO-57)

NORAD 27848 · 2003-031J

PAYLOAD ACTIVE UNKNOWN

§ Identity

Operator
Country
JPN
Launch date
2003-06-30
Launch site
PLMSC
Launch vehicle
Mass (kg)
RCS (m²)
0.03

Purposes: comms, tech_demo

External: N2YO · Heavens-Above · Gunter

§ Orbital elements

Epoch: 2026-09-19T23:26:26.944800Z

Period
101.15 min
Inclination
98.6806°
Eccentricity
0.0008369
Mean motion
14.23661736 rev/d
Perigee alt
807.0 km
Apogee alt
819.0 km
Semi-major
7,191.1 km
B*
8.0276e-5
RAAN
269.9965°
Arg perigee
292.3957°
Mean anomaly
67.6334°
Rev number
20,486

§ Raw data

CUBESAT XI-IV (CO-57)1 27848U 03031J   26262.97670075  .00000139  00000+0  80276-4 0  99942 27848  98.6806 269.9965 0008369 292.3957  67.6334 14.23661736204865

JSON: /api/v1/satellites/27848 · /tle

For live sub-satellite position, see the globe view (requires WebGL).

§ Visibility from observer

Set your observer location to see the next 7 days of passes ≥ 10°. The values pass through the URL so the page stays shareable.

No JS? Fill the form by hand. The geolocation button needs JavaScript.

§ Radio — SatNOGS DB

ModeDescriptionDownlinkUplink
AFSK Mode U AFSK TLM 437.490 MHz
CW Mode U CW Beacon 436.848 MHz
CW PE0SAT - CW Beacon 436.849 MHz

3 transmitters · refreshed weekly from db.satnogs.org